Location: Invercargill
(46.4000°S, 168.3500°E)
Time: 17:45:30
(UTC+12:00)

H-2A R/B - Pass Details

Date: 14 May 2021
Orbit: 529 x 651 km, 98.3° (Epoch: 14 June)

Event Time Altitude Azimuth Distance (km) Brightness Sun altitude
Exits shadow 19:33:54 26° 10° (N) 1,084 3.7 -22.1°
Drops below altitude 10° 19:35:44 10° 360° (N) 1,792 5.0 -22.4°
Sets 19:37:51 0° 355° (N) 2,678 5.9 -22.8°
